Regional Weather Roundup
Issued by NWS

Home | Current Version | Previous Version | Graphics & Text | Print | Product List | Glossary Off
Versions: 1 2 3 4 5 6 7 8 9 10 11 12 13 14 15 16 17 18 19 20 21 22 23 24 25 26 27 28 29 30 31 32 33 34 35 36 37 38 39 40 41 42 43 44 45 46 47 48 49 50

000
ASUS43 KMKX 260721
RWRWI

WISCONSIN REGIONAL WEATHER ROUNDUP
NATIONAL WEATHER SERVICE MILWAUKEE/SULLIVAN WI
100 AM CST MON JAN 26 2015

NOTE: "FAIR" INDICATES FEW OR NO CLOUDS BELOW 12,000 FEET WITH NO
SIGNIFICANT WEATHER AND/OR OBSTRUCTIONS TO VISIBILITY.

WIZ001-002-006>008-014>016-023>028-260800-
NORTHWEST WISCONSIN

CITY           SKY/WX    TMP DP  RH WIND       PRES   REMARKS
SUPERIOR ARPT  CLOUDY    19  13  79 CALM      29.88F
ASHLAND        CLOUDY    15   8  73 SW3       29.91F
HAYWARD        CLOUDY    17   8  67 S8        29.89F WCI   7
SIREN          CLOUDY    21  13  69 S7        29.91F WCI  13
CUMBERLAND     CLOUDY    18  10  73 S9        29.89F WCI   6
RICE LAKE      CLOUDY    17  11  77 S6        29.94F WCI   8
CHETEK         CLOUDY    15  11  83 CALM      29.94F
LADYSMITH      CLOUDY    16  10  78 S5        29.95F WCI   8
EAU CLAIRE     MOCLDY    19  11  70 S9        29.95F WCI   8
MENOMONIE      CLOUDY    19  13  76 SE6       29.97F WCI  11
NEW RICHMOND   CLOUDY    19  15  82 S8        29.93F WCI   9
OSCEOLA        CLOUDY    21  16  83 S7        29.96F WCI  12
$$

WIZ003>005-009-010-017-018-260800-
NORTH CENTRAL WISCONSIN

CITY           SKY/WX    TMP DP  RH WIND       PRES   REMARKS
MANITOWISH WTR CLOUDY     9   3  77 S5        29.89F WCI   1
ARBOR VITAE    PTCLDY    11   6  78 CALM      29.89F
WOODRUFF       PTCLDY    11   6  78 CALM      29.89F
RHINELANDER    PTCLDY    10   3  73 S5        29.91F WCI   2
EAGLE RIVER    PTCLDY     9   3  76 CALM      29.90F
LAND O LAKES   CLOUDY     8   4  84 CALM      29.90F
PHILLIPS       CLOUDY    10   5  81 S3        29.90F
TOMAHAWK       PTCLDY     8   3  81 CALM      29.93F
MEDFORD        MOCLDY    10   4  78 S7        29.93F WCI  -1
MERRILL        PTCLDY     9   5  84 CALM      29.95F
$$

WIZ029-030-035-036-043>047-260800-
CENTRAL WISCONSIN

CITY           SKY/WX    TMP DP  RH WIND       PRES   REMARKS
WAUSAU         PTCLDY    10   4  76 S7        29.95F WCI  -1
MOSINEE        PTCLDY    10   5  79 S6        29.97F WCI   1
MARSHFIELD     PTCLDY    12   5  73 S8        29.96F WCI   0
STEVENS POINT  PTCLDY     6   2  85 CALM      29.99F
WAUPACA        PTCLDY    12   8  82 CALM      30.02F
WAUTOMA        PTCLDY     9   6  87 CALM      30.03F
WISC RAPIDS    PTCLDY     9   4  80 S3        30.01F
CAMP DOUGLAS   PTCLDY    10  10  98 S5        30.00F WCI   2
$$

WIZ011>013-019>022-031-037>040-048>050-260800-
NORTHEAST WISCONSIN

CITY           SKY/WX    TMP DP  RH WIND       PRES   REMARKS
ANTIGO         PTCLDY     7   2  82 S6        29.94F WCI  -3
SHAWANO        PTCLDY    10   7  86 CALM      30.01F
OCONTO         PTCLDY     8   6  93 CALM      30.02F
STURGEON BAY   CLEAR      9   3  78 CALM      30.01F
GREEN BAY      PTCLDY    12   8  84 CALM      30.02F
MANITOWOC      PTCLDY    14   9  80 CALM      30.02F
APPLETON       PTCLDY    14   5  67 N3        30.00F
CLINTONVILLE   PTCLDY    10   7  85 CALM      30.01F
OSHKOSH        PTCLDY    14   6  70 W5        30.01F WCI   6
$$

WIZ032>034-041-042-053>061-260800-
SOUTHWEST WISCONSIN

CITY           SKY/WX    TMP DP  RH WIND       PRES   REMARKS
LA CROSSE      CLEAR     21  14  74 S6        30.02F WCI  13
SPARTA         CLEAR     13  10  88 CALM      30.02F
VIROQUA        CLEAR     16  11  80 S6        29.98F WCI   8
BOSCOBEL       PTCLDY    16  10  77 CALM      30.05F
PRAIRIE DU CHI MOCLDY    16  12  86 CALM      30.05F
PLATTEVILLE    PTCLDY    15  11  83 CALM      30.03S
$$

WIZ056-057-062-063-064-067-068-260800-
SOUTH CENTRAL WISCONSIN

CITY           SKY/WX    TMP DP  RH WIND       PRES   REMARKS
REEDSBURG      CLEAR     13  10  86 CALM      30.02F
BARABOO/DELLS  CLEAR     11   8  86 CALM      30.01F
LONE ROCK      PTCLDY    13   9  84 CALM      30.05F
MINERAL POINT  NOT AVBL
MADISON        PTCLDY    14   9  80 CALM      30.02F
MIDDLETON      PTCLDY    12   8  85 CALM      30.02F
WATERTOWN      CLEAR     13  10  84 NW3       30.01S
MONROE         PTCLDY    14  12  92 NW7       30.01R WCI   4
JANESVILLE     PTCLDY    18  12  79 N3        30.02R
$$

WIZ051-052-058>065-066-070>072-260800-
SOUTHEAST WISCONSIN

CITY           SKY/WX    TMP DP  RH WIND       PRES   REMARKS
MILWAUKEE      MOCLDY    19  12  74 NW8       30.01R WCI   9
WAUKESHA       CLEAR     12  10  92 CALM      30.00F
MILWAUKEE/TIMM CLEAR     16  10  79 CALM      30.01F
RACINE         MOCLDY    24  15  68 E6        30.02R WCI  17
BURLINGTON     CLEAR     13  10  85 CALM      29.99F
KENOSHA        MOCLDY    17  13  84 NW7       30.00R WCI   8
FOND DU LAC    FLURRIES  13   7  77 NW5       30.02F WCI   5
SHEBOYGAN      FAIR      13   8  81 CALM      30.01F
WEST BEND      CLEAR     12  10  92 SW3       30.00F
JUNEAU         CLEAR     13   8  80 NW5       30.02S WCI   5
$$

LSZ147-162-260800-
LAKE SUPERIOR

STATION/POSITION TIME  TEMP    WIND        PRES    WAVE
                       AIR SEA DIR/SP/G            HT/PER
                 (UTC) (F)     (DEG/KT/KT) (MB)    (FT/S)
DEVILS ISLAND    0700   21     200/  6/ 10 1013.6F
PORT WING        0600   19     170/  9/ 15 1013.2
SAXON HARBOR     0600   14        CALM     1014.2F
$$

LMZ867-665-643>646-260800-
LAKE MICHIGAN

STATION/POSITION TIME  TEMP    WIND        PRES    WAVE
                       AIR SEA DIR/SP/G            HT/PER
                 (UTC) (F)     (DEG/KT/KT) (MB)    (FT/S)
NORTHPORT PIER   0613   10     280/  1/  6 1016.9F
SISTER BAY       0613    9        CALM       N/A
KEWAUNEE LAKESHO 0600   14     290/  4/  7 1016.4R
SHEBOYGAN LAKESH 0700   23      80/  8/ 10 1017.6F
PORT WASHINGTON  0600   18        CALM     1017.6S
MILWAUKEE LAKESH 0700   20     330/  6/  8   N/A
KENOSHA   LAKESH 0700   25      60/  8/ 11 1016.3R
$$

TC  - TEMPERATURE IN CELSIUS
VSB - VISIBILITY IN STATUTE MILES
WCI - WIND CHILL INDEX
HX  - HEAT INDEX



USA.gov is the U.S. government's official web portal to all federal, state and local government web resources and services.